Home   Weather   Lautoka   Past weeks

Flag for Fiji Past Weather in Lautoka, Fiji — Yesterday and Last 2 Weeks

Now
86 °F

Scattered clouds.


Feels Like: 92 °F
Forecast: 74 / 86 °F
Wind: 15 mph from Southwest

Location: Nandi

Current Time: Jan 19, 2017 at 4:47:07 pm

Latest Report: Jan 19, 2017 at 4:00 pm


Visibility: N/A

Pressure: 29.59 "Hg

Humidity: 62%

Dew Point: 72 °F

Location of LautokaLocation

Past Weather in Lautoka — Graph

°F

Lautoka Temperature Yesterday

Maximum temperature yesterday: 84 °F (at 10:00 am)
Minimum temperature yesterday: 75 °F (at 3:00 am)
Average temperature yesterday: 79 °F

High & Low Weather Summary for the Past Weeks

 TemperatureHumidityPressure
High91 °F (Jan 8, 2:00 pm)100% (Jan 5, 2:00 am)29.92 "Hg (Jan 5, 2:00 am)
Low73 °F (Jan 15, 3:00 am)55% (Jan 16, 11:00 am)29.59 "Hg (Jan 19, 3:00 pm)
Average80 °F83%29.80 "Hg
* Reported Jan 4 4:00 pm — Jan 19 3:00 pm, Lautoka, Weather by CustomWeather, © 2017

Note: Actual official high and low records may vary slightly from our data, if they occured in-between our weather recording intervals... More about our weather records

Advertising

Lautoka Weather History for the Previous 24 Hours

Scroll right to see more
 ConditionsComfort  
Time TempWeatherWind HumidityBarometerVisibility
3:00 pm
Thu, Jan 19
88 °FScattered clouds.16 mph66%29.59 "HgN/A
2:00 pm86 °FScattered clouds.17 mph66%29.65 "HgN/A
1:00 pm84 °FScattered clouds.12 mph66%29.62 "HgN/A
12:00 pm86 °FScattered clouds.6 mph55%29.65 "HgN/A
11:00 am86 °FBroken clouds.6 mph59%29.65 "HgN/A
10:00 am82 °FBroken clouds.5 mph66%29.65 "HgN/A
9:00 am81 °FBroken clouds.5 mph74%29.68 "HgN/A
8:00 am77 °FBroken clouds.5 mph83%29.65 "HgN/A
7:00 am75 °FBroken clouds.6 mph89%29.68 "HgN/A
6:00 am73 °FBroken clouds.5 mph89%29.68 "HgN/A
5:00 am73 °FPartly cloudy.5 mph94%29.68 "HgN/A
4:00 am73 °FPartly cloudy.5 mph94%29.65 "HgN/A
3:00 am73 °FPartly cloudy.5 mph94%29.68 "HgN/A
2:00 am73 °FPartly cloudy.3 mph94%29.68 "HgN/A
1:00 am73 °FPartly cloudy.No wind94%29.71 "HgN/A
12:00 am75 °FPartly cloudy.3 mph94%29.71 "HgN/A
11:00 pm
Wed, Jan 18
75 °FPartly cloudy.No wind94%29.74 "HgN/A
10:00 pm77 °FPartly cloudy.6 mph89%29.74 "HgN/A
9:00 pm77 °FPassing clouds.3 mph89%29.74 "HgN/A
8:00 pm79 °FPartly cloudy.3 mph79%29.74 "HgN/A
7:00 pm79 °FPartly cloudy.3 mph79%29.71 "HgN/A
6:00 pm81 °FBroken clouds.3 mph74%29.68 "HgN/A
5:00 pm81 °FBroken clouds.5 mph79%29.68 "HgN/A
4:00 pm81 °FBroken clouds.7 mph79%29.68 "HgN/A
Weather by CustomWeather, © 2017

See weather overviewHow to use our weather pages